Qianfan Jigui 03-05

operational
NORAD ID: 62242 Int'l Des: 2024-232 Owner: YUANX Country: CN Constellation: qianfan
LEOCIRCULARPOLAR

Qianfan Jigui 03-05について

説明を読み込み中...

リアルタイム位置

3D地球を読み込み中...

次回通過

高度履歴

Altitude vs Time

uPlot chart will show altitude changes over time

軌道要素

1 62242U 24232F 26063.08426979 .00000093 00000-0 12616-3 0 9992
2 62242 89.0053 32.9835 0012848 324.1269 35.9019 13.51004580110234
Epoch: Mar 4, 2026 • Age: 19 hours

現在のステータス

高度 1088.4 km
速度 7.31 km/s
衛星直下点 65.46°N, 129.43°E
打ち上げ日 Dec 5, 2024
運用期間 1.2 years
タイプ internet

技術仕様

分類 Payload
質量 267.00 kg
乾燥質量 267.00 kg
総質量 267.00 kg
長さ 0.30 m
直径 3.00 m
スパン 10.00 m
形状 Box+pan
製造者 SECM
バスタイプ Qianfan
フェーズステータス In Orbit
所有者/国 YUANX/CN

大規模コンステレーション

Loading constellations...